{"data":{"norad_id":47649,"epoch":"2026-05-24T23:44:41.464320Z","epoch_age_seconds":79888,"freshness":"FRESH","line1":"1 47649U 21012AF  26144.98936880  .00141413  00000+0  68956-3 0  9994","line2":"2 47649  53.0365 354.8363 0003074 321.6899  38.3904 15.81448480292810","mean_motion":15.8144848,"eccentricity":0.0003074,"inclination_deg":53.0365,"raan_deg":354.8363,"arg_perigee_deg":321.6899,"mean_anomaly_deg":38.3904,"bstar":0.00068956,"rev_number":29281,"period_min":91.055764269981,"perigee_km":324.28270606155,"apogee_km":328.40462077342,"semimajor_km":6704.4806634175,"source":"CELESTRAK","updated_at":"2026-05-25T13:38:16.561802Z"}}